Location: *
(58.7167°N, 26.1833°E)
Time: 02:24:27
(UTC+00:00)

SJ 16-02 - Pass Details

Date: 25 August 2019
Orbit: 606 x 617 km, 75.0° (Epoch: 17 October)

Event Time Altitude Azimuth Distance (km) Brightness Sun altitude
Rises 22:00:42 0° 275° (W) 2,890 4.9 -20.6°
Reaches altitude 10° 22:03:53 10° 299° (WNW) 1,989 4.4 -20.6°
Maximum altitude 22:06:25 15° 334° (NNW) 1,695 4.5 -20.6°
Drops below altitude 10° 22:08:58 10° 9° (N) 1,996 5.1 -20.7°
Sets 22:12:10 0° 34° (NNE) 2,905 5.7 -20.7°
